TimeCDT,TemperatureF,Dew PointF,Humidity,Sea Level PressureIn,VisibilityMPH,Wind Direction,Wind SpeedMPH,Gust SpeedMPH,PrecipitationIn,Events,Conditions,WindDirDegrees,DateUTC
12:15 AM,48.7,39.2,70,29.97,10.0,Calm,Calm,-,N/A,,Clear,0,2013-05-05 05:15:00
12:35 AM,48.2,39.2,71,29.96,10.0,Calm,Calm,-,N/A,,Clear,0,2013-05-05 05:35:00
12:55 AM,47.7,39.4,73,29.96,10.0,Calm,Calm,-,N/A,,Clear,0,2013-05-05 05:55:00
1:15 AM,46.4,39.2,76,29.96,10.0,Calm,Calm,-,N/A,,Clear,0,2013-05-05 06:15:00
1:35 AM,47.8,40.1,75,29.96,10.0,Calm,Calm,-,N/A,,Mostly Cloudy,0,2013-05-05 06:35:00
1:55 AM,46.8,40.1,78,29.95,10.0,Calm,Calm,-,N/A,,Mostly Cloudy,0,2013-05-05 06:55:00
2:15 AM,44.6,40.1,84,29.95,10.0,Calm,Calm,-,N/A,,Clear,0,2013-05-05 07:15:00
2:35 AM,43.0,40.1,90,29.94,10.0,Calm,Calm,-,N/A,,Clear,0,2013-05-05 07:35:00
2:55 AM,42.8,39.7,89,29.94,10.0,Calm,Calm,-,N/A,,Clear,0,2013-05-05 07:55:00
3:15 AM,43.0,39.6,88,29.94,10.0,Calm,Calm,-,N/A,,Clear,0,2013-05-05 08:15:00
3:35 AM,42.8,39.7,89,29.94,10.0,Calm,Calm,-,N/A,,Clear,0,2013-05-05 08:35:00
3:55 AM,42.8,39.2,87,29.94,10.0,Calm,Calm,-,N/A,,Clear,0,2013-05-05 08:55:00
4:15 AM,42.8,39.4,88,29.94,10.0,Calm,Calm,-,N/A,,Clear,0,2013-05-05 09:15:00
4:35 AM,43.2,39.6,87,29.95,10.0,Calm,Calm,-,N/A,,Clear,0,2013-05-05 09:35:00
4:55 AM,42.8,39.6,88,29.94,10.0,Calm,Calm,-,N/A,,Clear,0,2013-05-05 09:55:00
5:15 AM,42.4,39.4,89,29.95,10.0,Calm,Calm,-,N/A,,Clear,0,2013-05-05 10:15:00
5:35 AM,42.3,39.4,90,29.95,10.0,Calm,Calm,-,N/A,,Scattered Clouds,0,2013-05-05 10:35:00
5:55 AM,41.9,39.2,90,29.96,10.0,Calm,Calm,-,N/A,,Clear,0,2013-05-05 10:55:00
6:15 AM,41.9,39.2,90,29.97,10.0,Calm,Calm,-,N/A,,Scattered Clouds,0,2013-05-05 11:15:00
6:35 AM,41.9,39.4,91,29.98,10.0,Calm,Calm,-,N/A,,Scattered Clouds,0,2013-05-05 11:35:00
6:55 AM,42.4,39.9,91,29.99,10.0,Calm,Calm,-,N/A,,Scattered Clouds,0,2013-05-05 11:55:00
7:15 AM,43.7,40.6,89,30.00,10.0,Calm,Calm,-,N/A,,Clear,0,2013-05-05 12:15:00
7:35 AM,44.8,41.0,87,30.00,10.0,Calm,Calm,-,N/A,,Scattered Clouds,0,2013-05-05 12:35:00
7:55 AM,46.2,42.1,85,30.00,10.0,Calm,Calm,-,N/A,,Mostly Cloudy,0,2013-05-05 12:55:00
8:15 AM,48.2,42.6,81,30.01,10.0,Calm,Calm,-,N/A,,Mostly Cloudy,0,2013-05-05 13:15:00
8:35 AM,48.9,42.4,78,30.01,10.0,Calm,Calm,-,N/A,,Mostly Cloudy,0,2013-05-05 13:35:00
8:55 AM,51.3,43.0,73,30.02,10.0,NW,6.9,-,N/A,,Scattered Clouds,310,2013-05-05 13:55:00
9:15 AM,52.3,42.1,68,30.02,10.0,NW,6.9,-,N/A,,Scattered Clouds,310,2013-05-05 14:15:00
9:35 AM,53.8,41.5,63,30.02,10.0,NNW,6.9,-,N/A,,Scattered Clouds,340,2013-05-05 14:35:00
9:55 AM,53.8,40.3,60,30.03,10.0,NNW,8.1,-,N/A,,Scattered Clouds,340,2013-05-05 14:55:00
10:15 AM,55.0,41.2,60,30.03,10.0,West,4.6,-,N/A,,Scattered Clouds,280,2013-05-05 15:15:00
10:35 AM,54.9,41.0,60,30.03,10.0,Calm,Calm,-,N/A,,Mostly Cloudy,0,2013-05-05 15:35:00
10:55 AM,58.1,39.7,50,30.04,10.0,Calm,Calm,-,N/A,,Mostly Cloudy,0,2013-05-05 15:55:00
11:15 AM,59.2,40.1,49,30.04,10.0,NW,9.2,17.3,N/A,,Scattered Clouds,320,2013-05-05 16:15:00
11:35 AM,58.3,40.5,52,30.05,10.0,NNW,9.2,17.3,N/A,,Mostly Cloudy,330,2013-05-05 16:35:00
11:55 AM,60.1,40.8,49,30.04,10.0,NNW,3.5,16.1,N/A,,Scattered Clouds,340,2013-05-05 16:55:00
12:15 PM,60.3,40.1,47,30.04,10.0,WNW,13.8,20.7,N/A,,Scattered Clouds,300,2013-05-05 17:15:00
12:35 PM,62.1,41.5,47,30.04,10.0,NW,11.5,16.1,N/A,,Mostly Cloudy,310,2013-05-05 17:35:00
1:15 PM,61.9,39.9,44,30.03,10.0,Calm,Calm,-,N/A,,Mostly Cloudy,0,2013-05-05 18:15:00
1:35 PM,61.0,39.9,46,30.02,10.0,Calm,Calm,-,N/A,,Mostly Cloudy,0,2013-05-05 18:35:00
1:55 PM,61.0,38.7,44,30.03,10.0,North,5.8,-,N/A,,Overcast,360,2013-05-05 18:55:00
2:15 PM,64.2,39.6,40,30.03,10.0,NW,11.5,17.3,N/A,,Mostly Cloudy,310,2013-05-05 19:15:00
2:35 PM,61.5,38.8,43,30.02,10.0,North,4.6,-,N/A,,Overcast,350,2013-05-05 19:35:00
2:55 PM,64.9,40.6,41,30.02,10.0,NW,9.2,16.1,N/A,,Overcast,320,2013-05-05 19:55:00
3:15 PM,65.5,39.0,38,30.02,10.0,NNW,5.8,-,N/A,,Scattered Clouds,330,2013-05-05 20:15:00
3:35 PM,65.3,39.0,38,30.01,10.0,North,3.5,-,N/A,,Scattered Clouds,350,2013-05-05 20:35:00
3:55 PM,64.8,38.3,38,30.01,10.0,North,5.8,-,N/A,,Scattered Clouds,360,2013-05-05 20:55:00
4:15 PM,63.3,39.6,42,30.00,10.0,Calm,Calm,-,N/A,,Scattered Clouds,0,2013-05-05 21:15:00
4:35 PM,65.3,37.6,36,30.00,10.0,NNW,8.1,-,N/A,,Mostly Cloudy,330,2013-05-05 21:35:00
4:55 PM,66.4,38.7,36,30.00,10.0,NW,5.8,-,N/A,,Mostly Cloudy,310,2013-05-05 21:55:00
5:15 PM,66.0,38.8,37,30.00,10.0,NW,8.1,17.3,N/A,,Scattered Clouds,310,2013-05-05 22:15:00
5:35 PM,63.5,39.0,41,29.99,10.0,Calm,Calm,-,N/A,,Scattered Clouds,0,2013-05-05 22:35:00
5:55 PM,65.3,38.7,38,29.99,10.0,Calm,Calm,-,N/A,,Scattered Clouds,0,2013-05-05 22:55:00
6:15 PM,65.3,38.3,37,29.99,10.0,NW,5.8,-,N/A,,Clear,310,2013-05-05 23:15:00
6:35 PM,64.8,38.7,38,29.99,10.0,NW,6.9,-,N/A,,Clear,320,2013-05-05 23:35:00
6:55 PM,64.4,39.4,40,29.99,10.0,Calm,Calm,-,N/A,,Clear,0,2013-05-05 23:55:00
7:15 PM,63.3,40.6,43,29.99,10.0,Calm,Calm,-,N/A,,Clear,0,2013-05-06 00:15:00
7:35 PM,59.9,47.3,63,30.00,10.0,Calm,Calm,-,N/A,,Clear,0,2013-05-06 00:35:00
7:55 PM,56.5,47.7,72,30.00,10.0,Calm,Calm,-,N/A,,Clear,0,2013-05-06 00:55:00
8:15 PM,54.1,46.6,76,30.00,10.0,Calm,Calm,-,N/A,,Clear,0,2013-05-06 01:15:00
8:35 PM,51.8,46.9,83,30.00,10.0,Calm,Calm,-,N/A,,Clear,0,2013-05-06 01:35:00
8:55 PM,53.4,48.4,83,30.01,10.0,Calm,Calm,-,N/A,,Mostly Cloudy,0,2013-05-06 01:55:00
9:15 PM,54.5,49.6,84,30.01,10.0,Calm,Calm,-,N/A,,Overcast,0,2013-05-06 02:15:00
9:55 PM,57.4,46.6,67,30.01,10.0,Calm,Calm,-,N/A,,Overcast,0,2013-05-06 02:55:00
10:15 PM,58.1,46.2,65,30.01,10.0,Calm,Calm,-,N/A,,Overcast,0,2013-05-06 03:15:00
10:35 PM,57.6,45.9,65,30.01,10.0,Calm,Calm,-,N/A,,Overcast,0,2013-05-06 03:35:00
10:55 PM,56.8,46.2,68,30.00,10.0,Calm,Calm,-,N/A,,Overcast,0,2013-05-06 03:55:00
11:15 PM,56.5,46.4,69,30.00,10.0,Calm,Calm,-,N/A,,Overcast,0,2013-05-06 04:15:00
11:35 PM,56.7,46.6,69,30.00,10.0,Calm,Calm,-,N/A,,Overcast,0,2013-05-06 04:35:00
11:55 PM,56.3,46.0,68,30.00,10.0,Calm,Calm,-,N/A,,Overcast,0,2013-05-06 04:55:00